Location: Marcé
(47.5801°N, 0.3280°W)
Time: 18:11:55
(UTC+01:00)

Courier 1B Rocket - Visible Passes

Search period start: 06 December 2021 00:00
Search period end: 16 December 2021 00:00
Orbit: 920 x 1202 km, 28.2° (Epoch: 05 December)

Date Brightness Start Highest point End Pass type
(mag) Time Alt. Az. Time Alt. Az. Time Alt. Az.
12 Dec 7.4 20:49:35 10° SSW 20:50:42 12° S 20:50:42 12° S visible
13 Dec 7.2 19:49:23 10° S 19:52:03 12° SSE 19:53:29 11° SSE visible
14 Dec 7.4 18:50:14 10° S 18:51:18 10° SSE 18:52:21 10° SSE visible
14 Dec 7.2 20:39:41 10° SSW 20:42:37 15° S 20:42:37 15° S visible
15 Dec 7.2 19:39:01 10° SSW 19:42:45 14° S 19:45:24 12° SSE visible
15 Dec 7.6 21:31:23 10° SW 21:31:46 11° SW 21:31:46 11° SW visible
